This demonstration page uses our WeatherBlox Daily Observations layout. Learn more.

Left ArrowRight Arrow

Hourly Observations for December 28, 2015

Temp ( °F °C ) Dew Point ( °F °C ) Humidity (%) Winds ( mph kmh ) Pressure ( in mb ) Visibility ( mi km ) Precip ( " mm )
12:53 am 00:53 Cloudy 40 4.4 35 1.7 83 83 ENE 12 19 30.25 1024 10 16 N/A
1:53 am 01:53 Cloudy 40 4.4 35 1.7 83 83 ENE 12 19 30.24 1024 10 16 N/A
2:53 am 02:53 Cloudy 40 4.4 35 1.7 83 83 ENE 14 22 30.21 1023 10 16 N/A
3:53 am 03:53 Cloudy 41 5 35 1.7 79 79 ENE 13 20 30.21 1023 10 16 N/A
4:06 am 04:06 Cloudy 41 5 34 1.1 76 76 E 15 24 30.21 1023 10 16 N/A
4:53 am 04:53 Cloudy with Light Rain 40 4.4 34 1.1 79 79 ENE 14 22 30.18 1022 10 16 N/A
5:06 am 05:06 Cloudy with Light Rain 39 3.9 35 1.7 86 86 ENE 16 26 30.15 1021 5 8 N/A
5:53 am 05:53 Cloudy with Rain 39 3.9 35 1.7 86 86 ENE 16 26 30.16 1021 6 10 0.02 0.51
6:53 am 06:53 Cloudy with Light Rain 38 3.3 35 1.7 89 89 ENE 17 28 30.16 1021 6 10 0.03 0.76
7:53 am 07:53 Cloudy with Light Rain 38 3.3 34 1.1 86 86 ENE 20 31 30.14 1021 9 14 0.03 0.76
8:53 am 08:53 Cloudy with Light Rain 38 3.3 34 1.1 86 86 E 21 33 30.12 1020 10 16 0.03 0.76
9:53 am 09:53 Cloudy 38 3.3 34 1.1 86 86 E 20 31 30.11 1020 10 16 0.02 0.51
10:53 am 10:53 Cloudy with Rain 38 3.3 35 1.7 89 89 E 14 22 30.10 1019 3 5 0.06 1.52
11:01 am 11:01 Cloudy with Heavy Rain 38 3.3 35 1.7 89 89 E 15 24 30.09 1019 2 3 0.06 1.52
11:05 am 11:05 Cloudy with Heavy Rain 37 2.8 35 1.7 93 93 E 15 24 30.09 1019 2 2 0.09 2.29
11:17 am 11:17 Cloudy with Light Rain 38 3.3 35 1.7 89 89 E 14 22 30.09 1019 2 3 0.11 2.79
11:28 am 11:28 Cloudy with Light Rain 38 3.3 35 1.7 89 89 ENE 12 19 30.06 1018 4 6 0.11 2.79
11:44 am 11:44 Cloudy with Light Rain 38 3.3 35 1.7 89 89 E 15 24 30.03 1017 6 10 0.11 2.79
11:53 am 11:53 Cloudy 38 3.3 35 1.7 89 89 E 14 22 30.02 1017 10 16 0.11 2.79
12:53 pm 12:53 Cloudy with Rain 38 3.3 36 2.2 93 93 E 17 28 29.92 1013 3 5 0.03 0.76
1:23 pm 13:23 Cloudy with Heavy Rain 38 3.3 36 2.2 93 93 E 14 22 29.94 1014 2 3 0.07 1.78
1:31 pm 13:31 Cloudy with Heavy Rain 38 3.3 36 2.2 93 93 E 9 15 29.94 1014 1 2 0.15 3.81
1:36 pm 13:36 Cloudy with Light Rain 38 3.3 36 2.2 93 93 E 10 17 29.94 1014 2 3 0.17 4.32
2:53 pm 14:53 Cloudy with Light Rain 40 4.4 37 2.8 89 89 E 14 22 29.82 1010 10 16 N/A
3:53 pm 15:53 Cloudy with Light Rain 40 4.4 38 3.3 93 93 E 10 17 29.78 1009 6 10 0.03 0.76

Powered by AerisWeather